Location: Unspecified
(0.0000°N, 0.0000°E)
Time: 13:41:25
(UTC+00:00)

Transit 2A - Visible Passes

Search period start: 26 May 2015 00:00
Search period end: 05 June 2015 00:00
Orbit: 593 x 968 km, 66.7° (Epoch: 25 May)

Date Brightness Start Highest point End Pass type
(mag) Time Alt. Az. Time Alt. Az. Time Alt. Az.
01 Jun 8.8 20:31:00 11° NNE 20:31:00 11° NNE 20:31:18 10° NNE visible
02 Jun 7.2 19:53:44 35° NE 19:53:44 35° NE 19:57:24 10° NNE visible
02 Jun 9.1 21:33:42 11° WNW 21:34:41 12° WNW 21:36:26 10° NW visible
03 Jun 6.8 19:11:59 10° S 19:17:23 38° ESE 19:23:12 10° NE visible
03 Jun 8.7 20:56:19 10° WSW 21:00:41 19° WNW 21:04:53 10° NNW visible
04 Jun 7.3 18:39:00 10° SSE 18:43:35 24° ESE 18:48:35 10° ENE visible
04 Jun 8.1 20:21:28 10° SW 20:26:46 30° WNW 20:32:08 10° N visible
